TimeCST,TemperatureF,Dew PointF,Humidity,Sea Level PressureIn,VisibilityMPH,Wind Direction,Wind SpeedMPH,Gust SpeedMPH,PrecipitationIn,Events,Conditions,WindDirDegrees,DateUTC
12:53 AM,61.0,55.0,81,29.71,10.0,East,4.6,-,N/A,,Overcast,90,2013-02-25 06:53:00
1:17 AM,60.8,55.4,82,29.70,10.0,East,5.8,-,N/A,,Overcast,90,2013-02-25 07:17:00
1:53 AM,61.0,57.0,87,29.70,10.0,ESE,8.1,-,N/A,,Overcast,110,2013-02-25 07:53:00
2:53 AM,61.0,57.0,87,29.68,10.0,East,9.2,-,N/A,,Overcast,100,2013-02-25 08:53:00
3:11 AM,60.8,57.2,88,29.66,10.0,ESE,8.1,-,N/A,,Overcast,110,2013-02-25 09:11:00
3:53 AM,60.1,57.9,93,29.65,10.0,ESE,11.5,-,N/A,,Overcast,120,2013-02-25 09:53:00
4:53 AM,60.1,59.0,96,29.64,9.0,ESE,8.1,-,N/A,,Overcast,120,2013-02-25 10:53:00
5:53 AM,60.1,59.0,96,29.64,7.0,ESE,9.2,-,N/A,,Overcast,110,2013-02-25 11:53:00
6:07 AM,60.8,59.0,94,29.62,6.0,ESE,9.2,-,N/A,,Overcast,110,2013-02-25 12:07:00
6:53 AM,60.1,60.1,100,29.64,5.0,ESE,8.1,-,N/A,,Overcast,110,2013-02-25 12:53:00
7:53 AM,61.0,61.0,100,29.66,5.0,ESE,8.1,-,N/A,,Overcast,110,2013-02-25 13:53:00
8:53 AM,62.1,61.0,96,29.67,7.0,ESE,8.1,-,0.00,,Overcast,120,2013-02-25 14:53:00
9:08 AM,62.6,62.6,100,29.66,7.0,ESE,6.9,-,N/A,,Overcast,120,2013-02-25 15:08:00
9:53 AM,64.9,62.1,90,29.65,10.0,ESE,10.4,-,N/A,,Overcast,120,2013-02-25 15:53:00
10:24 AM,66.2,62.6,88,29.63,10.0,ESE,11.5,-,0.00,,Overcast,120,2013-02-25 16:24:00
10:36 AM,66.2,62.6,88,29.62,10.0,ESE,10.4,-,0.00,,Overcast,120,2013-02-25 16:36:00
10:53 AM,66.0,63.0,90,29.62,10.0,ESE,12.7,-,0.00,Rain-Thunderstorm,Light Rain,120,2013-02-25 16:53:00
11:16 AM,68.0,64.4,88,29.60,10.0,SE,11.5,-,0.00,Thunderstorm,Overcast,130,2013-02-25 17:16:00
11:37 AM,69.8,64.4,83,29.57,10.0,SE,16.1,-,0.00,,Overcast,130,2013-02-25 17:37:00
11:53 AM,69.1,64.9,87,29.57,10.0,SE,18.4,-,0.00,,Overcast,140,2013-02-25 17:53:00
12:00 PM,68.0,64.4,88,29.56,10.0,SSE,12.7,-,N/A,,Overcast,150,2013-02-25 18:00:00
12:36 PM,66.2,64.4,94,29.52,10.0,ESE,15.0,-,N/A,,Overcast,120,2013-02-25 18:36:00
12:53 PM,68.0,64.9,90,29.51,10.0,SE,10.4,-,N/A,,Overcast,130,2013-02-25 18:53:00
1:53 PM,66.0,64.9,96,29.44,5.0,ESE,11.5,-,N/A,,Overcast,120,2013-02-25 19:53:00
2:13 PM,66.2,64.4,94,29.46,6.0,ESE,16.1,-,0.00,Rain-Thunderstorm,Light Rain,120,2013-02-25 20:13:00
2:38 PM,64.4,64.4,100,29.42,2.5,SE,21.9,27.6,0.05,Rain-Thunderstorm,Thunderstorms and Rain,130,2013-02-25 20:38:00
2:53 PM,64.9,64.9,100,29.43,10.0,SE,19.6,25.3,0.05,,Overcast,130,2013-02-25 20:53:00
3:29 PM,64.4,64.4,100,29.40,5.0,SSE,18.4,27.6,0.02,Rain-Thunderstorm,Rain,150,2013-02-25 21:29:00
3:40 PM,64.4,62.6,94,29.40,6.0,SSE,10.4,-,0.03,Rain-Thunderstorm,Light Rain,160,2013-02-25 21:40:00
3:48 PM,64.4,62.6,94,29.41,5.0,SE,15.0,-,0.05,Rain,Rain,140,2013-02-25 21:48:00
3:53 PM,63.0,62.1,97,29.42,9.0,SE,18.4,-,0.05,Rain,Light Rain,140,2013-02-25 21:53:00
4:07 PM,62.6,62.6,100,29.41,1.8,SSE,13.8,-,0.15,Rain-Thunderstorm,Thunderstorms and Rain,150,2013-02-25 22:07:00
4:31 PM,62.6,60.8,94,29.41,1.5,West,10.4,-,0.46,Rain-Thunderstorm,Heavy Rain,260,2013-02-25 22:31:00
4:35 PM,62.6,62.6,100,29.42,3.0,WSW,10.4,-,0.46,Rain-Thunderstorm,Light Rain,250,2013-02-25 22:35:00
4:42 PM,62.6,62.6,100,29.42,6.0,SW,8.1,-,0.47,Rain,Light Rain,230,2013-02-25 22:42:00
4:49 PM,64.4,62.6,94,29.42,10.0,SW,6.9,-,0.47,,Overcast,220,2013-02-25 22:49:00
4:53 PM,64.0,62.1,93,29.43,10.0,SSW,4.6,-,0.47,,Overcast,200,2013-02-25 22:53:00
5:53 PM,64.0,60.1,87,29.43,10.0,Calm,Calm,-,N/A,,Partly Cloudy,0,2013-02-25 23:53:00
6:53 PM,59.0,57.0,93,29.44,10.0,Calm,Calm,-,N/A,,Clear,0,2013-02-26 00:53:00
7:53 PM,59.0,48.0,67,29.49,10.0,WSW,3.5,-,N/A,,Clear,250,2013-02-26 01:53:00
8:53 PM,57.0,37.0,47,29.52,10.0,West,16.1,25.3,N/A,,Clear,280,2013-02-26 02:53:00
9:53 PM,54.0,33.1,45,29.56,10.0,West,8.1,20.7,N/A,,Clear,270,2013-02-26 03:53:00
10:53 PM,51.1,32.0,48,29.58,10.0,West,11.5,19.6,N/A,,Clear,270,2013-02-26 04:53:00
11:53 PM,48.9,32.0,52,29.59,10.0,West,11.5,21.9,N/A,,Clear,260,2013-02-26 05:53:00